When you browse on this site, cookies collect data to enhance your experience and personalize the content and advertising you see.
Visit our Privacy Policy to learn more. By continuing to use the site, you agree to this use of cookies and data.
  • In Hungary
  • List of Countries
  • For 7 days
  • Water Temperature
  • Satellite Maps
  • Weather Map
  • News
  • Weather Widgets
  • user-avatar
    Login

    Hourly Weather Rheinbach

    Today, 23 February, Saturday

    Time Temperature Precipitation Wind Pressure Humidity
    00:00 +5°C° 0 mm 2 mps 762 mmHg 94%
    01:00 +5°C° 0 mm 2 mps 761 mmHg 93%
    02:00 +5°C° 0 mm 2 mps 761 mmHg 93%
    03:00 +4°C° 0 mm 3 mps 761 mmHg 93%
    04:00 +3°C° 0 mm 3 mps 761 mmHg 93%
    05:00 +3°C° 0 mm 3 mps 761 mmHg 92%
    06:00 +4°C° 0 mm 2 mps 762 mmHg 91%
    07:00 +3°C° 0 mm 3 mps 762 mmHg 85%
    08:00 +4°C° 0 mm 3 mps 762 mmHg 79%
    09:00 +4°C° 0 mm 3 mps 762 mmHg 73%
    10:00 +7°C° 0 mm 3 mps 762 mmHg 64%
    11:00 +8°C° 0 mm 3 mps 761 mmHg 55%
    12:00 +9°C° 0 mm 3 mps 761 mmHg 46%
    13:00 +9°C° 0 mm 3 mps 761 mmHg 45%
    14:00 +8°C° 0 mm 4 mps 761 mmHg 45%
    15:00 +10°C° 0 mm 4 mps 761 mmHg 44%
    16:00 +8°C° 0 mm 3 mps 761 mmHg 49%
    17:00 +7°C° 0 mm 3 mps 761 mmHg 54%
    18:00 +5°C° 0 mm 2 mps 761 mmHg 59%
    19:00 +5°C° 0 mm 2 mps 761 mmHg 59%
    20:00 +4°C° 0 mm 2 mps 761 mmHg 60%
    21:00 +4°C° 0 mm 2 mps 762 mmHg 60%
    22:00 +4°C° 0 mm 2 mps 762 mmHg 59%
    23:00 +3°C° 0 mm 2 mps 762 mmHg 57%

    Tomorrow, 24 February, Sunday

    Time Temperature Precipitation Wind Pressure Humidity
    00:00 +3°C° 0 mm 2 mps 762 mmHg 56%
    01:00 +3°C° 0 mm 2 mps 762 mmHg 54%
    02:00 +3°C° 0 mm 2 mps 761 mmHg 52%
    03:00 +2°C° 0 mm 2 mps 761 mmHg 50%
    04:00 +2°C° 0 mm 2 mps 761 mmHg 49%
    05:00 +2°C° 0 mm 2 mps 761 mmHg 48%
    06:00 +2°C° 0 mm 2 mps 761 mmHg 47%
    07:00 +3°C° 0 mm 2 mps 762 mmHg 44%
    08:00 +5°C° 0 mm 2 mps 762 mmHg 41%
    09:00 +6°C° 0 mm 2 mps 762 mmHg 38%
    10:00 +8°C° 0 mm 2 mps 762 mmHg 36%
    11:00 +9°C° 0 mm 2 mps 762 mmHg 34%
    12:00 +12°C° 0 mm 2 mps 762 mmHg 33%
    13:00 +12°C° 0 mm 2 mps 762 mmHg 34%
    14:00 +13°C° 0 mm 2 mps 762 mmHg 36%
    15:00 +13°C° 0 mm 2 mps 761 mmHg 38%
    16:00 +10°C° 0 mm 2 mps 762 mmHg 42%
    17:00 +10°C° 0 mm 1 mps 762 mmHg 46%
    18:00 +8°C° 0 mm 1 mps 762 mmHg 50%
    19:00 +7°C° 0 mm 1 mps 762 mmHg 50%
    20:00 +7°C° 0 mm 1 mps 762 mmHg 50%
    21:00 +7°C° 0 mm 1 mps 762 mmHg 49%
    22:00 +6°C° 0 mm 1 mps 762 mmHg 50%
    23:00 +6°C° 0 mm 1 mps 762 mmHg 50%

    Day after tomorrow, 25 February, Monday

    Time Temperature Precipitation Wind Pressure Humidity
    00:00 +6°C° 0 mm 1 mps 762 mmHg 50%
    01:00 +6°C° 0 mm 1 mps 762 mmHg 50%
    02:00 +5°C° 0 mm 2 mps 762 mmHg 51%
    03:00 +5°C° 0 mm 2 mps 762 mmHg 51%
    04:00 +6°C° 0 mm 1 mps 762 mmHg 52%
    05:00 +5°C° 0 mm 1 mps 762 mmHg 53%
    06:00 +5°C° 0 mm 1 mps 762 mmHg 53%
    07:00 +7°C° 0 mm 1 mps 762 mmHg 52%
    08:00 +8°C° 0 mm 1 mps 763 mmHg 50%
    09:00 +10°C° 0 mm 1 mps 763 mmHg 49%
    10:00 +12°C° 0 mm 1 mps 762 mmHg 47%
    11:00 +13°C° 0 mm 1 mps 762 mmHg 45%
    12:00 +15°C° 0 mm 1 mps 762 mmHg 42%
    13:00 +16°C° 0 mm 1 mps 761 mmHg 44%
    14:00 +16°C° 0 mm 1 mps 761 mmHg 46%
    15:00 +16°C° 0 mm 1 mps 761 mmHg 47%
    16:00 +14°C° 0 mm 1 mps 761 mmHg 53%
    17:00 +11°C° 0 mm 0 mps 761 mmHg 59%
    18:00 +9°C° 0 mm 0 mps 761 mmHg 65%
    19:00 +10°C° 0 mm 1 mps 761 mmHg 66%
    20:00 +10°C° 0 mm 1 mps 761 mmHg 67%
    21:00 +9°C° 0 mm 1 mps 761 mmHg 69%
    22:00 +9°C° 0 mm 1 mps 761 mmHg 69%
    23:00 +9°C° 0 mm 1 mps 761 mmHg 69%

    26 February, Tuesday

    Time Temperature Precipitation Wind Pressure Humidity
    00:00 +8°C° 0 mm 1 mps 761 mmHg 69%
    01:00 +8°C° 0 mm 1 mps 760 mmHg 69%
    02:00 +8°C° 0 mm 1 mps 760 mmHg 69%
    03:00 +8°C° 0 mm 1 mps 760 mmHg 69%
    04:00 +8°C° 0 mm 1 mps 760 mmHg 69%
    05:00 +6°C° 0 mm 0 mps 760 mmHg 69%
    06:00 +6°C° 0 mm 0 mps 760 mmHg 69%
    07:00 +8°C° 0 mm 0 mps 760 mmHg 65%
    08:00 +9°C° 0 mm 0 mps 760 mmHg 61%
    09:00 +12°C° 0 mm 1 mps 760 mmHg 57%
    10:00 +14°C° 0 mm 1 mps 760 mmHg 52%
    11:00 +15°C° 0 mm 1 mps 760 mmHg 48%
    12:00 +18°C° 0 mm 1 mps 760 mmHg 43%
    13:00 +18°C° 0 mm 1 mps 759 mmHg 44%
    14:00 +16°C° 0 mm 0 mps 759 mmHg 44%
    15:00 +16°C° 0 mm 0 mps 758 mmHg 45%
    16:00 +14°C° 0 mm 0 mps 758 mmHg 51%
    17:00 +12°C° 0 mm 0 mps 758 mmHg 57%
    18:00 +10°C° 0 mm 0 mps 758 mmHg 63%
    19:00 +10°C° 0 mm 0 mps 758 mmHg 65%
    20:00 +9°C° 0 mm 0 mps 758 mmHg 66%
    21:00 +10°C° 0 mm 1 mps 758 mmHg 67%
    22:00 +10°C° 0 mm 1 mps 758 mmHg 68%
    23:00 +9°C° 0 mm 1 mps 758 mmHg 68%

    27 February, Wednesday

    Time Temperature Precipitation Wind Pressure Humidity
    00:00 +9°C° 0 mm 1 mps 758 mmHg 69%
    01:00 +9°C° 0 mm 1 mps 757 mmHg 69%
    02:00 +9°C° 0 mm 1 mps 757 mmHg 69%
    03:00 +8°C° 0 mm 1 mps 756 mmHg 69%
    04:00 +8°C° 0 mm 1 mps 756 mmHg 68%
    05:00 +8°C° 0 mm 1 mps 756 mmHg 67%
    06:00 +8°C° 0 mm 1 mps 756 mmHg 66%
    07:00 +9°C° 0 mm 1 mps 756 mmHg 62%
    08:00 +11°C° 0 mm 1 mps 756 mmHg 58%
    09:00 +13°C° 0 mm 1 mps 756 mmHg 54%
    10:00 +14°C° 0 mm 1 mps 755 mmHg 48%
    11:00 +16°C° 0 mm 1 mps 755 mmHg 43%
    12:00 +19°C° 0 mm 1 mps 754 mmHg 38%
    13:00 +19°C° 0 mm 1 mps 754 mmHg 38%
    14:00 +19°C° 0 mm 1 mps 753 mmHg 39%
    15:00 +20°C° 0 mm 1 mps 752 mmHg 40%
    16:00 +16°C° 0 mm 1 mps 752 mmHg 47%
    17:00 +14°C° 0 mm 1 mps 752 mmHg 54%
    18:00 +12°C° 0 mm 2 mps 751 mmHg 62%
    19:00 +12°C° 0 mm 2 mps 751 mmHg 64%
    20:00 +10°C° 0 mm 2 mps 751 mmHg 67%
    21:00 +9°C° 0 mm 2 mps 751 mmHg 70%
    22:00 +9°C° 0 mm 2 mps 751 mmHg 71%
    23:00 +8°C° 0 mm 2 mps 751 mmHg 72%

    28 February, Thursday

    Time Temperature Precipitation Wind Pressure Humidity
    00:00 +8°C° 0 mm 2 mps 750 mmHg 74%
    01:00 +8°C° 0 mm 2 mps 750 mmHg 76%
    02:00 +7°C° 0 mm 2 mps 750 mmHg 79%
    03:00 +7°C° 0 mm 2 mps 750 mmHg 81%
    04:00 +7°C° 0 mm 2 mps 749 mmHg 84%
    05:00 +6°C° 0 mm 2 mps 749 mmHg 86%
    06:00 +7°C° 0 mm 1 mps 749 mmHg 89%
    07:00 +7°C° 0 mm 2 mps 749 mmHg 84%
    08:00 +9°C° 0 mm 2 mps 749 mmHg 79%
    09:00 +10°C° 0 mm 2 mps 750 mmHg 74%
    10:00 +12°C° 0 mm 2 mps 749 mmHg 71%
    11:00 +13°C° 0 mm 3 mps 749 mmHg 68%
    12:00 +14°C° 0 mm 3 mps 749 mmHg 65%
    13:00 +14°C° 0 mm 3 mps 749 mmHg 65%
    14:00 +14°C° 0 mm 3 mps 748 mmHg 66%
    15:00 +14°C° 0 mm 4 mps 748 mmHg 66%
    16:00 +12°C° 0 mm 3 mps 748 mmHg 72%
    17:00 +11°C° 0 mm 3 mps 748 mmHg 77%
    18:00 +10°C° 0 mm 2 mps 749 mmHg 83%
    19:00 +10°C° 0 mm 2 mps 749 mmHg 84%
    20:00 +9°C° 0 mm 2 mps 749 mmHg 86%
    21:00 +8°C° 0 mm 2 mps 749 mmHg 87%
    22:00 +8°C° 0 mm 2 mps 749 mmHg 89%
    23:00 +7°C° 0 mm 2 mps 749 mmHg 90%
    Show more